Location: Moscow
(55.7500°N, 37.5830°E)
Time: 15:03:48
(UTC+03:00)

Vanguard 1 - Pass Details

Date: 08 December 2021
Orbit: 652 x 3830 km, 34.2° (Epoch: 25 January)

Event Time Altitude Azimuth Distance (km) Brightness Sun altitude
Rises 22:19:49 0° 208° (SSW) 6,677 14.2 -50.1°
Enters shadow 22:22:54 - 202° (SSW) 6,279 14.0 -50.4°
Exits shadow 23:03:41 - 91° (E) 7,539 14.4 -54.0°
Sets 23:03:56 0° 90° (E) 7,572 14.4 -54.0°
